Location: Unspecified
(0.0000°N, 0.0000°E)
Time: 02:11:00
(UTC+00:00)

Courier 1B Rocket - Visible Passes

Search period start: 21 October 2014 00:00
Search period end: 31 October 2014 00:00
Orbit: 921 x 1202 km, 28.3° (Epoch: 18 October)

Date Brightness Start Highest point End Pass type
(mag) Time Alt. Az. Time Alt. Az. Time Alt. Az.
23 Oct 7.2 19:52:35 10° S 19:54:14 12° SSE 19:54:14 12° SSE visible
24 Oct 7.4 20:42:27 10° SSW 20:43:26 14° SSW 20:43:26 14° SSW visible
25 Oct 6.8 19:42:32 10° SSW 19:46:16 18° SSE 19:46:16 18° SSE visible
26 Oct 7.0 18:43:28 10° S 18:45:34 12° SSE 18:47:41 10° SE visible
26 Oct 7.0 20:33:24 10° SW 20:35:31 21° SSW 20:35:31 21° SSW visible
27 Oct 6.2 19:33:09 10° SSW 19:38:25 27° SSE 19:38:25 27° SSE visible
28 Oct 6.7 18:33:15 10° SSW 18:37:22 18° SSE 18:41:21 11° ESE visible
28 Oct 6.5 20:24:37 10° SW 20:27:44 30° SW 20:27:44 30° SW visible
29 Oct 5.5 19:24:06 10° SW 19:30:03 42° SSE 19:30:42 41° SE visible
30 Oct 7.4 05:02:02 10° N 05:05:39 14° NNE 05:09:14 10° NE visible
30 Oct 6.2 18:23:50 10° SSW 18:29:02 27° SSE 18:33:42 13° E visible
30 Oct 6.0 20:16:07 10° WSW 20:20:05 41° WSW 20:20:05 41° WSW visible
